Retour au catalogue

STRIX-6

ActifScienceVLEO
NORAD 68291·PAYLOAD·🇯🇵 Japan

Lancé Mar 20, 2026 depuis Rocket Lab Launch Complex 1

Loading…

Prochains Passages (prochaines 24 heures)

TLE

FraisSource: Space-Track

Époque: Sep 14, 2026, 12:09 UTC

1 68291U 26056A   26257.50687014  .00003268  00000-0  27563-3 0  9993
2 68291  50.2810 287.4236 0016292 229.8766 130.0756 15.00631568 26685

Suivez STRIX-6 en temps réel avec AllMySat

Download on the App Store